Simultaneous Nadir Overpasses (SNOs) Predictions

Prediction of SNOs near equator between AQUA and NPP Satellite Orbit:

Table of predicted SNOs near equator for the next 14.0 days since TLE Epoch: 5/10/2015
Index Date (AQUA) Time (AQUA) AQUA Lat,Lon Date (NPP) Time (NPP) NPP Lat,Lon Distance(km) Time Diff (sec)
1 05/11/2015 06:21:36 -29.94, -76.06 05/11/2015 06:12:41 -30.01, -75.70 35.92 535
2 05/11/2015 07:11:06 29.94, 91.57 05/11/2015 07:03:29 29.97, 91.61 5.51 457
3 05/11/2015 07:54:04 -6.76, -95.42 05/11/2015 07:47:34 -6.76, -95.41 1.08 390
4 05/11/2015 08:38:46 -10.69, 75.93 05/11/2015 08:33:26 -10.71, 75.81 13.52 320
5 05/11/2015 09:26:52 15.29,-115.40 05/11/2015 09:22:48 15.34,-115.79 42.24 244
6 05/11/2015 10:15:08 -19.80, 53.24 05/11/2015 10:12:19 -19.91, 52.60 68.87 169
7 05/11/2015 11:03:14 24.39,-138.01 05/11/2015 11:01:41 24.54,-138.92 93.39 93
8 05/13/2015 21:48:39 29.98,-127.83 05/13/2015 21:38:56 30.06,-127.28 54.36 583
9 05/13/2015 22:38:02 -29.98, 39.82 05/13/2015 22:29:36 -30.00, 40.07 24.00 506
10 05/13/2015 23:26:06 24.80,-151.25 05/13/2015 23:18:56 24.80,-151.26 0.54 430
11 05/14/2015 00:07:33 3.90, 22.74 05/14/2015 00:01:28 3.90, 22.73 0.46 365
12 05/14/2015 00:54:42 -12.46,-167.79 05/14/2015 00:49:51 -12.49,-168.02 25.14 291
13 05/14/2015 01:42:50 16.94, 0.86 05/14/2015 01:39:14 17.05, 0.37 53.11 216
14 05/14/2015 02:31:04 -21.56, 169.55 05/14/2015 02:28:44 -21.69, 168.79 78.98 140
15 05/16/2015 14:05:04 30.00, -11.95 05/16/2015 13:55:51 30.06, -11.51 42.04 553
16 05/16/2015 14:54:27 -29.99, 155.71 05/16/2015 14:46:31 -29.99, 155.83 11.81 476
17 05/16/2015 15:39:19 13.24, -32.70 05/16/2015 15:32:34 13.24, -32.69 0.31 405
18 05/16/2015 16:22:23 9.62, 139.86 05/16/2015 16:16:46 9.61, 139.78 8.45 337
19 05/16/2015 17:10:38 -14.19, -51.52 05/16/2015 17:06:16 -14.26, -51.85 36.60 262
20 05/16/2015 17:58:45 18.73, 117.16 05/16/2015 17:55:38 18.88, 116.57 63.90 187
21 05/16/2015 18:47:00 -23.29, -74.15 05/16/2015 18:45:09 -23.45, -75.01 88.85 111
22 05/19/2015 05:31:58 -29.99, -63.67 05/19/2015 05:21:58 -30.10, -63.06 60.22 600
23 05/19/2015 06:21:27 30.00, 103.95 05/19/2015 06:12:45 30.06, 104.25 29.38 522
24 05/19/2015 07:10:50 -29.99, -88.39 05/19/2015 07:03:25 -29.99, -88.41 1.17 445
25 05/19/2015 07:52:09 0.37, 85.96 05/19/2015 07:45:49 0.37, 85.98 1.25 380
26 05/19/2015 08:38:16 11.43,-103.85 05/19/2015 08:33:08 11.48,-104.03 19.83 308
27 05/19/2015 09:26:31 -16.00, 64.78 05/19/2015 09:22:39 -16.07, 64.34 48.12 232
28 05/19/2015 10:14:38 20.54,-126.53 05/19/2015 10:12:01 20.70,-127.22 74.49 157
29 05/19/2015 11:02:53 -25.09, 42.18 05/19/2015 11:01:32 -25.26, 41.22 98.48 81
30 05/21/2015 21:48:20 -29.97, 52.23 05/21/2015 21:38:51 -30.05, 52.71 47.54 569
31 05/21/2015 22:37:50 29.98,-140.15 05/21/2015 22:29:39 30.01,-139.98 16.67 491
32 05/21/2015 23:23:58 -18.25, 30.35 05/21/2015 23:16:59 -18.25, 30.36 0.38 419
